User: anonymous   Login
Location: Davayat
(45.9471°N, 3.1105°E)
Time: 11:16:31
(UTC+00:00)
Language:

Cosmos 1151 Rocket - Orbit

View from above orbital plane
View from above orbital plane
View from above satellite
View from above satellite

Ground track
Ground track

The orbit data is extracted from the following two-line orbital elements,

1 11672U 80005B   21063.57318980  .00000118  00000-0  10047-4 0  9999
2 11672  82.5131 238.9588 0017865 130.5237 229.7540 14.88033432203987
Epoch (UTC): 04 March 2021 13:45:23
Eccentricity: 0.0017865
inclination: 82.5131°
perigee height: 591 km
apogee height: 616 km
right ascension of ascending node: 238.9588°
argument of perigee: 130.5237°
revolutions per day: 14.88033432
mean anomaly at epoch: 229.7540°
orbit number at epoch: 20398

The dashed part of the orbit path shows where the satellite is in the earth's shadow,  

DLR